SCP
-0 -0 -0 -0 -0 -0 0 0 0 0 0 0 0 0 0 0 0 -0 -0 -0 -0 -0 -0 0 0 0 0 0 0 0 0 0 0 0 0 0 0 0 0 0 0 0 0
-0 -0 -0 -0 0 0 0 0 0 0 0 0 0 0 0 0 -0 -0 -0 -0 -0 -0 -0 -0 -0 -0 -0 0 0 0 0 0 0 0 0 0 0 0 0 0 0 0 0
0 0 0 -0 0 0 0 0 0 0 0 0 0 0 0 0 -0 -0 -0 -0 -0 -0 -0 0 -0 -0 -0 0 0 0 0 0 0 0 0 0 0 0 0 0 0 0 0
0 0 0 0 0 0 0 0 0 0 0 0 0 0 0 0 0 0 -0 -0 -0 -0 -0 0 0 0 0 0 0 0 0 0 0 0 0 0 0 0 0 0 0 0 0
0 0 0 0 0 0 0 0 0 0 0 0 0 0 0 0 0 0 0 0 -0 -0 -0 -0 0 0 0 0 0 0 0 0 0 0 -0 0 0 0 0 0 0 0 0
0 0 0 -0 -0 -0 -0 -0 -0 0 0 0 0 0 0 0 0 0 0 0 0 0 0 0 0 0 0 0 0 0 0 0 0 0 0 0 0 0 0 0 0 0 0
0 0 -0 -0 -0 -0 -0 -0 0 0 0 0 0 0 0 0 0 0 0 0 0 0 0 0 0 0 0 0 0 0 0 0 0 0 0 0 0 0 0 0 0 0 0
-0 0 0 -0 -0 -0 -0 0 0 0 0 0 0 0 0 0 0 0 0 0 0 0 0 0 0 0 0 0 0 0 0 0 0 0 0 0 0 0 0 0 0 0 0
0 0 0 0 0 0 0 0 0 0 0 0 0 0 0 0 0 0 0 0 0 0 0 0 0 0 0 0 0 0 0 0 0 0 0 0 0 0 0 0 0 0 0
0 0 0 0 0 0 0 0 0 0 0 0 0 0 0 0 0 0 0 0 0 0 0 0 0 0 0 0 0 0 0 0 0 0 0 0 0 0 0 0 0 0 0
0 0 0 0 0 0 0 0 0 0 0 0 0 0 0 0 0 0 0 0 0 0 0 0 0 0 0 0 0 0 0 0 0 0 0 0 0 0 0 0 0 0 0
0 0 0 0 0 0 0 0 0 0 0 0 0 0 0 0 0 0 0 0 0 0 0 0 0 0 0 0 0 0 0 0 0 0 0 0 0 0 0 0 0 0 0
0 0 0 0 0 0 0 0 0 0 0 0 0 0 0 0 0 0 0 0 0 0 0 0 0 0 0 0 0 0 0 0 0 0 0 0 0 0 0 0 0 0 0
0 0 0 0 0 0 0 0 0 0 0 0 0 0 0 0 0 0 0 0 0 0 0 0 0 0 0 0 0 0 0 0 0 0 0 0 0 0 0 0 0 0 0
0 0 0 0 0 0 0 0 0 0 0 0 0 0 0 0 0 0 0 0 0 0 0 0 0 0 0 0 0 0 0 0 0 0 0 0 0 0 0 0 0 0 0
0 0 0 0 0 0 0 0 0 0 0 0 0 0 0 0 0 0 0 0 0 0 0 0 0 0 0 0 0 0 0 0 0 0 0 0 0 0 0 0 0 0 0
0 0 0 0 0 0 0 0 0 0 0 0 0 0 0 0 0 0 0 0 0 0 0 0 0 0 0 0 0 0 0 0 0 0 0 0 0 0 0 0 0 0 0
0 0 0 0 0 0 0 0 0 0 0 0 0 0 0 0 0 0 0 0 0 0 0 0 0 0 0 0 0 0 0 0 0 0 0 0 0 0 0 0 0 0 0
0 0 0 0 0 0 0 0 0 0 0 0 0 0 0 0 0 0 0 0 0 0 0 0 0 0 0 0 0 0 0 0 0 0 0 0 0 0 0 0 0 0 0
0 0 0 0 0 0 0 0 0 0 0 0 0 0 0 0 0 0 0 0 0 0 0 0 0 0 0 0 0 0 0 0 0 0 0 0 0 0 0 0 0 0 0
0 0 0 0 0 0 0 0 0 0 0 0 0 0 0 0 0 0 0 0 0 0 0 0 0 0 0 0 0 0 0 0 0 0 0 0 0 0 0 0 0 0 0
0 0 0 0 0 0 0 0 0 0 0 0 0 0 0 0 0 0 0 0 0 0 0 0 0 0 0 0 0 0 0 0 0 0 0 0 0 0 0 0 0 0 0
0 0 0 0 0 0 0 0 0 0 0 0 0 0 0 0 0 0 0 0 0 0 0 0 0 0 0 0 0 0 0 0 0 0 0 0 0 0 0 0 0 0 0
0 0 0 0 0 0 0 0 0 0 0 0 0 0 0 0 0 0 0 0 0 0 0 0 0 0 0 0 0 0 0 0 0 0 0 0 0 0 0 1 0 0 0
0 0 0 0 0 0 0 0 0 0 0 0 0 0 0 0 0 0 0 0 0 0 0 0 0 0 0 0 0 0 0 0 0 0 0 0 0 0 0 0 0 0 0
0 0 0 0 0 0 0 0 0 0 0 0 0 0 0 0 0 0 0 0 0 0 0 0 0 0 0 0 0 0 0 0 0 0 0 0 0 0 0 0 0 0 0
Wind_Speed_500mb
14 7 8 7 6 7 3 6 9 11 15 16 17 19 20 21 21 21 19 19 17 15 13 18 14 8 12 13 16 16 15 18 16 17 15 12 15 18 18 20 17 11 21
11 7 4 4 9 10 6 4 6 10 14 17 17 21 21 21 20 16 17 17 15 15 17 27 17 11 7 9 17 21 20 17 15 19 21 22 23 20 20 20 19 17 21
4 6 5 11 7 9 8 5 7 8 12 16 20 22 24 24 22 19 18 19 16 14 18 20 18 16 12 8 20 22 25 32 31 26 31 24 19 28 26 22 22 24 20
4 7 9 10 13 16 10 15 15 15 17 17 19 20 22 26 28 24 21 19 18 17 17 20 23 19 19 21 32 29 29 33 36 39 35 26 28 35 29 25 28 22 22
8 11 12 11 12 14 20 22 21 22 25 23 23 23 25 26 26 28 29 25 22 21 20 22 26 26 27 32 36 36 44 38 36 40 36 34 31 31 32 28 31 25 27
15 18 20 20 18 18 21 23 20 27 29 28 27 27 32 32 30 31 33 31 32 29 29 27 27 34 41 45 49 56 39 40 39 35 30 34 40 36 36 31 33 32 29
16 18 20 20 21 22 21 21 23 29 29 29 27 31 35 36 35 36 38 38 36 38 38 36 36 34 37 43 46 46 46 43 50 45 34 33 34 41 37 38 36 34 32
12 14 16 18 19 21 22 23 23 24 25 27 28 34 35 36 39 39 39 42 45 46 46 46 44 43 42 42 43 45 45 48 49 54 43 35 39 37 37 44 38 40 38
8 11 12 13 12 12 16 20 24 27 31 33 35 36 37 40 41 44 48 50 47 50 55 53 52 52 51 49 47 46 43 44 40 46 53 42 47 45 44 44 47 43 44
5 7 10 14 16 17 18 18 18 18 20 22 25 30 36 41 45 45 45 44 45 45 49 54 55 59 59 57 54 54 49 48 51 42 53 52 59 52 52 49 48 43 50
4 5 7 9 13 15 16 17 19 20 23 24 25 27 29 29 30 32 39 47 52 52 52 51 51 56 57 65 61 58 57 56 50 47 47 57 69 63 62 56 49 49 50
8 4 3 8 12 15 17 19 22 24 25 27 28 30 32 34 36 38 39 40 42 47 56 60 59 58 57 55 61 64 65 69 57 56 54 59 57 67 72 67 62 60 56
11 6 5 7 11 16 21 26 31 34 35 36 36 37 38 39 39 40 41 43 45 48 50 51 56 61 59 59 57 63 69 71 79 68 64 70 62 57 71 75 72 69 62
13 9 7 9 12 17 23 28 32 34 33 33 36 39 42 44 46 46 46 47 49 49 51 53 54 57 58 63 64 69 67 74 71 83 70 77 74 63 60 75 79 77 73
16 11 7 8 12 18 24 29 34 37 38 40 41 43 46 48 50 52 53 53 51 53 56 58 58 59 59 60 62 67 65 78 83 80 88 89 89 79 71 66 78 81 79
17 12 7 7 11 18 25 30 35 38 39 40 41 44 47 51 55 59 60 60 60 60 58 58 62 66 65 64 66 64 72 77 75 87 87 95 98 97 84 79 74 82 82
20 16 10 6 11 18 24 29 34 37 40 41 42 44 48 52 57 60 62 63 64 66 67 66 63 63 68 69 70 70 69 77 85 85 89 94 101 92 98 91 86 79 87
24 16 12 7 12 20 27 34 39 40 43 43 43 46 49 53 57 62 66 66 66 67 69 70 69 67 64 67 70 69 70 71 76 89 89 85 96 92 90 91 93 90 84
28 20 13 12 17 23 31 38 42 43 44 43 45 49 52 55 59 65 66 67 68 70 71 71 68 64 64 63 66 67 69 71 73 76 84 90 88 85 99 102 88 93 93
34 27 21 20 24 29 36 43 45 45 42 44 45 49 53 58 62 67 70 72 72 73 71 69 67 61 59 60 61 64 71 75 75 78 83 89 89 97 90 94 90 87 92
40 34 27 29 31 35 42 49 49 48 44 44 48 51 55 60 64 67 70 72 71 70 69 65 63 61 57 48 52 60 55 55 64 72 75 83 88 94 104 110 101 98 92
43 37 34 34 35 39 46 54 54 54 52 52 53 54 58 63 65 68 70 72 71 70 65 58 53 53 50 41 43 45 40 41 44 49 55 69 80 80 94 94 89 92 97
48 40 37 37 36 40 47 54 55 57 59 61 61 63 62 64 65 67 67 69 69 65 61 55 47 47 54 49 43 40 26 24 35 35 37 44 48 54 70 92 101 81 80
48 40 38 37 35 43 51 51 54 57 62 63 66 68 68 67 67 66 66 63 62 63 62 58 53 50 51 60 53 52 64 66 41 42 43 49 49 58 66 68 76 88 94
54 46 39 35 35 44 52 49 53 56 60 66 68 69 68 67 67 65 63 60 57 59 65 65 62 60 59 62 60 60 62 64 67 72 74 63 59 62 62 63 60 87 83
56 48 37 32 35 43 46 46 51 55 61 65 66 68 68 69 68 65 65 61 60 54 56 61 67 68 66 68 74 74 74 65 60 64 73 76 69 65 49 55 65 66 70
Wind_Direction_500mb
50 54 64 20 21 49 358 287 287 300 304 309 316 324 325 329 330 332 338 334 327 314 300 294 306 294 235 247 253 260 264 254 259 246 254 253 269 275 269 252 250 217 232
40 41 39 11 335 333 359 258 267 301 301 302 304 315 316 324 327 322 327 325 319 319 294 297 289 261 214 245 273 278 276 271 246 243 257 277 280 277 277 256 238 208 222
17 7 305 272 261 290 302 313 290 285 286 292 292 298 302 309 319 310 316 323 313 302 296 305 292 265 240 248 267 282 286 272 263 261 258 256 272 276 279 256 226 217 211
338 347 333 305 278 283 292 300 294 298 295 291 288 286 290 299 301 306 300 307 305 306 292 279 288 253 251 256 270 273 272 278 278 273 270 252 244 261 268 252 226 212 207
306 301 298 299 286 270 280 281 282 293 293 289 290 293 291 286 282 290 293 285 289 291 292 285 272 267 270 270 270 269 278 267 267 272 276 250 246 245 250 246 223 223 219
294 289 288 287 285 279 275 274 274 284 287 291 282 297 296 295 294 290 286 285 278 279 285 280 272 271 268 272 280 284 291 257 265 267 264 252 243 238 239 243 233 227 227
297 297 294 289 283 283 286 288 282 275 281 289 291 291 293 291 290 291 293 288 280 277 276 277 272 266 266 271 274 278 278 270 256 262 258 251 252 241 230 223 238 238 229
336 331 318 305 294 287 287 288 291 294 293 293 289 285 285 289 290 290 289 290 287 283 279 276 271 270 270 270 272 275 276 278 267 249 254 250 246 246 229 222 231 243 242
17 21 18 11 357 331 311 300 297 295 295 294 294 293 291 289 285 283 282 281 281 278 276 275 275 274 269 268 269 270 270 273 268 253 249 249 250 243 242 238 227 240 244
5 10 16 20 20 19 15 6 0 349 338 325 314 304 296 291 288 288 288 284 279 281 277 273 273 274 273 268 265 268 268 264 263 254 253 247 251 248 244 246 241 235 249
11 20 22 19 13 8 2 353 345 338 332 328 327 325 324 323 319 311 298 289 286 284 281 280 281 277 273 275 260 262 267 260 252 252 247 250 258 252 246 243 237 235 242
228 246 354 8 6 3 358 353 347 344 339 336 334 330 327 323 320 318 312 306 301 294 286 281 279 278 280 275 271 262 256 261 249 248 250 259 272 256 248 245 241 238 237
219 239 300 335 349 356 357 354 350 343 339 337 335 334 334 331 328 325 319 312 307 304 296 293 286 280 275 270 267 269 264 257 258 249 248 256 264 267 249 245 245 243 239
223 247 286 321 341 348 345 344 342 338 336 333 333 334 335 334 333 329 324 320 316 312 306 299 294 286 285 276 266 260 258 264 257 253 249 255 258 255 262 250 245 245 243
224 241 282 326 337 342 343 344 341 339 338 335 334 334 334 332 330 327 324 320 315 310 306 303 297 289 284 280 272 264 263 260 261 261 259 256 258 256 252 257 250 244 243
224 231 257 308 337 341 340 339 338 334 330 327 326 327 327 326 326 324 322 319 316 313 307 301 297 295 290 281 274 266 259 260 256 257 260 266 259 259 257 252 251 248 242
218 219 231 272 326 335 337 335 331 328 326 323 322 322 322 322 321 320 318 316 315 312 309 306 300 292 289 287 281 274 266 257 255 257 261 259 260 257 257 252 250 248 246
215 217 231 274 316 331 335 334 330 326 325 322 321 320 320 320 319 317 316 316 313 309 307 305 301 297 290 286 284 279 273 266 260 254 255 258 255 258 258 260 252 249 246
213 215 239 274 304 319 325 329 327 324 323 321 321 321 321 319 318 316 315 313 311 308 305 302 297 293 291 288 285 283 278 272 266 258 254 254 259 256 255 259 252 251 248
216 226 247 273 294 310 320 325 323 323 322 320 320 319 319 319 319 317 315 313 310 306 303 298 293 289 287 287 287 283 280 277 272 265 258 255 250 257 260 257 256 251 248
221 233 254 276 293 306 316 321 319 321 320 320 320 320 319 320 318 316 314 312 310 305 302 296 290 288 286 286 288 287 285 277 271 270 267 260 255 250 255 258 256 253 252
225 237 255 273 286 303 311 318 318 320 321 320 319 320 322 321 319 318 315 312 310 306 302 297 290 287 282 280 278 288 294 289 274 273 266 260 260 256 251 252 253 249 246
225 239 255 270 284 299 307 314 316 317 320 323 323 321 321 321 320 317 316 313 310 307 302 297 289 282 282 278 266 260 283 263 299 267 258 257 256 250 249 250 251 250 247
222 237 253 265 283 298 306 309 313 317 318 320 320 321 323 323 322 323 320 315 311 309 304 298 289 281 277 274 272 258 253 258 275 288 267 260 251 247 244 248 252 252 256
228 236 247 262 284 297 301 304 311 314 316 318 320 321 323 324 326 325 321 316 310 304 303 304 302 296 281 272 272 271 266 261 258 258 272 266 266 248 247 249 246 247 257
221 229 244 260 280 295 297 300 308 311 314 317 320 322 324 326 326 325 323 320 316 310 302 299 298 294 287 279 274 266 264 258 256 255 258 263 262 258 252 257 248 242 250
Wind_Speed_850mb
14 7 8 7 6 7 3 6 9 11 15 16 17 19 20 21 21 21 19 19 17 15 13 18 14 8 12 13 16 16 15 18 16 17 15 12 15 18 18 20 17 11 21
11 7 4 4 9 10 6 4 6 10 14 17 17 21 21 21 20 16 17 17 15 15 17 27 17 11 7 9 17 21 20 17 15 19 21 22 23 20 20 20 19 17 21
4 6 5 11 7 9 8 5 7 8 12 16 20 22 24 24 22 19 18 19 16 14 18 20 18 16 12 8 20 22 25 32 31 26 31 24 19 28 26 22 22 24 20
4 7 9 10 13 16 10 15 15 15 17 17 19 20 22 26 28 24 21 19 18 17 17 20 23 19 19 21 32 29 29 33 36 39 35 26 28 35 29 25 28 22 22
8 11 12 11 12 14 20 22 21 22 25 23 23 23 25 26 26 28 29 25 22 21 20 22 26 26 27 32 36 36 44 38 36 40 36 34 31 31 32 28 31 25 27
15 18 20 20 18 18 21 23 20 27 29 28 27 27 32 32 30 31 33 31 32 29 29 27 27 34 41 45 49 56 39 40 39 35 30 34 40 36 36 31 33 32 29
16 18 20 20 21 22 21 21 23 29 29 29 27 31 35 36 35 36 38 38 36 38 38 36 36 34 37 43 46 46 46 43 50 45 34 33 34 41 37 38 36 34 32
12 14 16 18 19 21 22 23 23 24 25 27 28 34 35 36 39 39 39 42 45 46 46 46 44 43 42 42 43 45 45 48 49 54 43 35 39 37 37 44 38 40 38
8 11 12 13 12 12 16 20 24 27 31 33 35 36 37 40 41 44 48 50 47 50 55 53 52 52 51 49 47 46 43 44 40 46 53 42 47 45 44 44 47 43 44
5 7 10 14 16 17 18 18 18 18 20 22 25 30 36 41 45 45 45 44 45 45 49 54 55 59 59 57 54 54 49 48 51 42 53 52 59 52 52 49 48 43 50
4 5 7 9 13 15 16 17 19 20 23 24 25 27 29 29 30 32 39 47 52 52 52 51 51 56 57 65 61 58 57 56 50 47 47 57 69 63 62 56 49 49 50
8 4 3 8 12 15 17 19 22 24 25 27 28 30 32 34 36 38 39 40 42 47 56 60 59 58 57 55 61 64 65 69 57 56 54 59 57 67 72 67 62 60 56
11 6 5 7 11 16 21 26 31 34 35 36 36 37 38 39 39 40 41 43 45 48 50 51 56 61 59 59 57 63 69 71 79 68 64 70 62 57 71 75 72 69 62
13 9 7 9 12 17 23 28 32 34 33 33 36 39 42 44 46 46 46 47 49 49 51 53 54 57 58 63 64 69 67 74 71 83 70 77 74 63 60 75 79 77 73
16 11 7 8 12 18 24 29 34 37 38 40 41 43 46 48 50 52 53 53 51 53 56 58 58 59 59 60 62 67 65 78 83 80 88 89 89 79 71 66 78 81 79
17 12 7 7 11 18 25 30 35 38 39 40 41 44 47 51 55 59 60 60 60 60 58 58 62 66 65 64 66 64 72 77 75 87 87 95 98 97 84 79 74 82 82
20 16 10 6 11 18 24 29 34 37 40 41 42 44 48 52 57 60 62 63 64 66 67 66 63 63 68 69 70 70 69 77 85 85 89 94 101 92 98 91 86 79 87
24 16 12 7 12 20 27 34 39 40 43 43 43 46 49 53 57 62 66 66 66 67 69 70 69 67 64 67 70 69 70 71 76 89 89 85 96 92 90 91 93 90 84
28 20 13 12 17 23 31 38 42 43 44 43 45 49 52 55 59 65 66 67 68 70 71 71 68 64 64 63 66 67 69 71 73 76 84 90 88 85 99 102 88 93 93
34 27 21 20 24 29 36 43 45 45 42 44 45 49 53 58 62 67 70 72 72 73 71 69 67 61 59 60 61 64 71 75 75 78 83 89 89 97 90 94 90 87 92
40 34 27 29 31 35 42 49 49 48 44 44 48 51 55 60 64 67 70 72 71 70 69 65 63 61 57 48 52 60 55 55 64 72 75 83 88 94 104 110 101 98 92
43 37 34 34 35 39 46 54 54 54 52 52 53 54 58 63 65 68 70 72 71 70 65 58 53 53 50 41 43 45 40 41 44 49 55 69 80 80 94 94 89 92 97
48 40 37 37 36 40 47 54 55 57 59 61 61 63 62 64 65 67 67 69 69 65 61 55 47 47 54 49 43 40 26 24 35 35 37 44 48 54 70 92 101 81 80
48 40 38 37 35 43 51 51 54 57 62 63 66 68 68 67 67 66 66 63 62 63 62 58 53 50 51 60 53 52 64 66 41 42 43 49 49 58 66 68 76 88 94
54 46 39 35 35 44 52 49 53 56 60 66 68 69 68 67 67 65 63 60 57 59 65 65 62 60 59 62 60 60 62 64 67 72 74 63 59 62 62 63 60 87 83
56 48 37 32 35 43 46 46 51 55 61 65 66 68 68 69 68 65 65 61 60 54 56 61 67 68 66 68 74 74 74 65 60 64 73 76 69 65 49 55 65 66 70
Wind_Direction_850mb
50 54 64 20 21 49 358 287 287 300 304 309 316 324 325 329 330 332 338 334 327 314 300 294 306 294 235 247 253 260 264 254 259 246 254 253 269 275 269 252 250 217 232
40 41 39 11 335 333 359 258 267 301 301 302 304 315 316 324 327 322 327 325 319 319 294 297 289 261 214 245 273 278 276 271 246 243 257 277 280 277 277 256 238 208 222
17 7 305 272 261 290 302 313 290 285 286 292 292 298 302 309 319 310 316 323 313 302 296 305 292 265 240 248 267 282 286 272 263 261 258 256 272 276 279 256 226 217 211
338 347 333 305 278 283 292 300 294 298 295 291 288 286 290 299 301 306 300 307 305 306 292 279 288 253 251 256 270 273 272 278 278 273 270 252 244 261 268 252 226 212 207
306 301 298 299 286 270 280 281 282 293 293 289 290 293 291 286 282 290 293 285 289 291 292 285 272 267 270 270 270 269 278 267 267 272 276 250 246 245 250 246 223 223 219
294 289 288 287 285 279 275 274 274 284 287 291 282 297 296 295 294 290 286 285 278 279 285 280 272 271 268 272 280 284 291 257 265 267 264 252 243 238 239 243 233 227 227
297 297 294 289 283 283 286 288 282 275 281 289 291 291 293 291 290 291 293 288 280 277 276 277 272 266 266 271 274 278 278 270 256 262 258 251 252 241 230 223 238 238 229
336 331 318 305 294 287 287 288 291 294 293 293 289 285 285 289 290 290 289 290 287 283 279 276 271 270 270 270 272 275 276 278 267 249 254 250 246 246 229 222 231 243 242
17 21 18 11 357 331 311 300 297 295 295 294 294 293 291 289 285 283 282 281 281 278 276 275 275 274 269 268 269 270 270 273 268 253 249 249 250 243 242 238 227 240 244
5 10 16 20 20 19 15 6 0 349 338 325 314 304 296 291 288 288 288 284 279 281 277 273 273 274 273 268 265 268 268 264 263 254 253 247 251 248 244 246 241 235 249
11 20 22 19 13 8 2 353 345 338 332 328 327 325 324 323 319 311 298 289 286 284 281 280 281 277 273 275 260 262 267 260 252 252 247 250 258 252 246 243 237 235 242
228 246 354 8 6 3 358 353 347 344 339 336 334 330 327 323 320 318 312 306 301 294 286 281 279 278 280 275 271 262 256 261 249 248 250 259 272 256 248 245 241 238 237
219 239 300 335 349 356 357 354 350 343 339 337 335 334 334 331 328 325 319 312 307 304 296 293 286 280 275 270 267 269 264 257 258 249 248 256 264 267 249 245 245 243 239
223 247 286 321 341 348 345 344 342 338 336 333 333 334 335 334 333 329 324 320 316 312 306 299 294 286 285 276 266 260 258 264 257 253 249 255 258 255 262 250 245 245 243
224 241 282 326 337 342 343 344 341 339 338 335 334 334 334 332 330 327 324 320 315 310 306 303 297 289 284 280 272 264 263 260 261 261 259 256 258 256 252 257 250 244 243
224 231 257 308 337 341 340 339 338 334 330 327 326 327 327 326 326 324 322 319 316 313 307 301 297 295 290 281 274 266 259 260 256 257 260 266 259 259 257 252 251 248 242
218 219 231 272 326 335 337 335 331 328 326 323 322 322 322 322 321 320 318 316 315 312 309 306 300 292 289 287 281 274 266 257 255 257 261 259 260 257 257 252 250 248 246
215 217 231 274 316 331 335 334 330 326 325 322 321 320 320 320 319 317 316 316 313 309 307 305 301 297 290 286 284 279 273 266 260 254 255 258 255 258 258 260 252 249 246
213 215 239 274 304 319 325 329 327 324 323 321 321 321 321 319 318 316 315 313 311 308 305 302 297 293 291 288 285 283 278 272 266 258 254 254 259 256 255 259 252 251 248
216 226 247 273 294 310 320 325 323 323 322 320 320 319 319 319 319 317 315 313 310 306 303 298 293 289 287 287 287 283 280 277 272 265 258 255 250 257 260 257 256 251 248
221 233 254 276 293 306 316 321 319 321 320 320 320 320 319 320 318 316 314 312 310 305 302 296 290 288 286 286 288 287 285 277 271 270 267 260 255 250 255 258 256 253 252
225 237 255 273 286 303 311 318 318 320 321 320 319 320 322 321 319 318 315 312 310 306 302 297 290 287 282 280 278 288 294 289 274 273 266 260 260 256 251 252 253 249 246
225 239 255 270 284 299 307 314 316 317 320 323 323 321 321 321 320 317 316 313 310 307 302 297 289 282 282 278 266 260 283 263 299 267 258 257 256 250 249 250 251 250 247
222 237 253 265 283 298 306 309 313 317 318 320 320 321 323 323 322 323 320 315 311 309 304 298 289 281 277 274 272 258 253 258 275 288 267 260 251 247 244 248 252 252 256
228 236 247 262 284 297 301 304 311 314 316 318 320 321 323 324 326 325 321 316 310 304 303 304 302 296 281 272 272 271 266 261 258 258 272 266 266 248 247 249 246 247 257
221 229 244 260 280 295 297 300 308 311 314 317 320 322 324 326 326 325 323 320 316 310 302 299 298 294 287 279 274 266 264 258 256 255 258 263 262 258 252 257 248 242 250